| time (UTC) | temp C | wind direction | speed KPH | gust KPH | rain 1hr cm | rain 24hr cm | rain mn cm | humidity % | barometer mb |
| 20260504192350 | 26 | 2 | 16.1 | 20.9 | 0.00 | 0.00 | 0.00 | 62 | 1013.6 |
| 20260504191828 | 26 | 183 | 16.1 | 20.9 | 0.00 | 0.00 | 0.00 | 60 | 1013.7 |
| 20260504191333 | 26 | 2 | 14.5 | 20.9 | 0.00 | 0.00 | 0.00 | 60 | 1013.7 |
| 20260504185541 | 26 | 2 | 14.5 | 20.9 | 0.00 | 0.00 | 0.00 | 61 | 1013.8 |
| 20260504185025 | 26 | 2 | 16.1 | 20.9 | 0.00 | 0.00 | 0.00 | 62 | 1013.9 |
| 20260504184526 | 26 | 2 | 14.5 | 20.9 | 0.00 | 0.00 | 0.00 | 60 | 1013.9 |
| 20260504184032 | 27 | 188 | 14.5 | 22.5 | 0.00 | 0.00 | 0.00 | 60 | 1013.9 |
| 20260504183531 | 27 | 227 | 12.9 | 22.5 | 0.00 | 0.00 | 0.00 | 59 | 1014.1 |
| 20260504182404 | 26 | 2 | 14.5 | 22.5 | 0.00 | 0.00 | 0.00 | 60 | 1014.2 |
| 20260504181846 | 26 | 190 | 14.5 | 22.5 | 0.00 | 0.00 | 0.00 | 60 | 1014.1 |
| 20260504181328 | 26 | 2 | 14.5 | 22.5 | 0.00 | 0.00 | 0.00 | 60 | 1014.1 |
| 20260504180808 | 26 | 206 | 14.5 | 27.4 | 0.00 | 0.00 | 0.00 | 61 | 1014.3 |
| 20260504180308 | 26 | 2 | 16.1 | 27.4 | 0.00 | 0.00 | 0.00 | 60 | 1014.3 |
| 20260504175804 | 26 | 200 | 16.1 | 27.4 | 0.00 | 0.00 | 0.00 | 59 | 1014.2 |
| 20260504175301 | 26 | 188 | 16.1 | 27.4 | 0.00 | 0.00 | 0.00 | 59 | 1014.5 |
| 20260504173456 | 26 | 2 | 17.7 | 24.1 | 0.00 | 0.00 | 0.00 | 60 | 1014.8 |
| 20260504172946 | 26 | 2 | 16.1 | 22.5 | 0.00 | 0.00 | 0.00 | 60 | 1014.8 |
| 20260504171803 | 26 | 174 | 17.7 | 24.1 | 0.00 | 0.00 | 0.00 | 62 | 1014.8 |
| 20260504171254 | 26 | 177 | 17.7 | 24.1 | 0.00 | 0.00 | 0.00 | 61 | 1014.9 |
| 20260504170144 | 25 | 2 | 19.3 | 24.1 | 0.00 | 0.00 | 0.00 | 61 | 1015.2 |
| 20260504160413 | 25 | 179 | 17.7 | 27.4 | 0.00 | 0.00 | 0.00 | 60 | 1015.5 |
| 20260504140509 | 24 | 171 | 17.7 | 24.1 | 0.00 | 0.00 | 0.00 | 63 | 1015.4 |
| 20260504130702 | 23 | 192 | 17.7 | 22.5 | 0.00 | 0.00 | 0.00 | 63 | 1015.4 |
| 20260504130147 | 23 | 192 | 16.1 | 22.5 | 0.00 | 0.00 | 0.00 | 63 | 1015.3 |
| 20260504110717 | 22 | 193 | 16.1 | 24.1 | 0.00 | 0.00 | 0.00 | 59 | 1014.7 |
| 20260504110220 | 22 | 194 | 16.1 | 24.1 | 0.00 | 0.00 | 0.00 | 58 | 1014.9 |
| 20260504100134 | 22 | 174 | 12.9 | 24.1 | 0.00 | 0.00 | 0.00 | 53 | 1015.3 |
| 20260504081551 | 22 | 173 | 17.7 | 27.4 | 0.00 | 0.00 | 0.00 | 53 | 1015.7 |
| 20260504081036 | 22 | 202 | 16.1 | 27.4 | 0.00 | 0.00 | 0.00 | 54 | 1015.8 |
| 20260504080534 | 22 | 184 | 17.7 | 27.4 | 0.00 | 0.00 | 0.00 | 55 | 1015.7 |
| 20260504060111 | 22 | 204 | 14.5 | 25.7 | 0.00 | 0.00 | 0.00 | 54 | 1017.3 |
| 20260504045716 | 22 | 186 | 9.7 | 19.3 | 0.00 | 0.00 | 0.00 | 53 | 1017.8 |
| 20260504045223 | 22 | 129 | 9.7 | 19.3 | 0.00 | 0.00 | 0.00 | 53 | 1017.9 |
| 20260504044702 | 22 | 148 | 9.7 | 19.3 | 0.00 | 0.00 | 0.00 | 54 | 1017.9 |
| 20260504044141 | 22 | 163 | 9.7 | 17.7 | 0.00 | 0.00 | 0.00 | 52 | 1018.0 |
| 20260504041053 | 22 | 142 | 8.0 | 17.7 | 0.00 | 0.00 | 0.00 | 53 | 1017.8 |
| 20260504040531 | 22 | 139 | 8.0 | 17.7 | 0.00 | 0.00 | 0.00 | 52 | 1017.8 |
| 20260504040016 | 22 | 169 | 9.7 | 17.7 | 0.00 | 0.00 | 0.00 | 52 | 1018.0 |
| 20260504035521 | 22 | 127 | 8.0 | 17.7 | 0.00 | 0.00 | 0.00 | 53 | 1017.8 |
| 20260504034405 | 22 | 108 | 8.0 | 17.7 | 0.00 | 0.00 | 0.00 | 54 | 1017.9 |
| 20260504033900 | 22 | 178 | 8.0 | 17.7 | 0.00 | 0.00 | 0.00 | 53 | 1017.9 |
| 20260504033341 | 22 | 186 | 8.0 | 17.7 | 0.00 | 0.00 | 0.00 | 52 | 1017.8 |
| 20260504032820 | 22 | 182 | 8.0 | 17.7 | 0.00 | 0.00 | 0.00 | 52 | 1017.8 |
| 20260504032327 | 22 | 133 | 6.4 | 14.5 | 0.00 | 0.00 | 0.00 | 51 | 1017.9 |
| 20260504031812 | 22 | 178 | 6.4 | 12.9 | 0.00 | 0.00 | 0.00 | 52 | 1017.9 |
| 20260504031254 | 22 | 193 | 8.0 | 14.5 | 0.00 | 0.00 | 0.00 | 53 | 1017.8 |
| 20260504030752 | 22 | 181 | 8.0 | 14.5 | 0.00 | 0.00 | 0.00 | 51 | 1017.8 |
| 20260504030239 | 22 | 182 | 8.0 | 14.5 | 0.00 | 0.00 | 0.00 | 52 | 1017.8 |
| 20260504025741 | 22 | 168 | 8.0 | 14.5 | 0.00 | 0.00 | 0.00 | 51 | 1017.8 |
| 20260504025246 | 22 | 130 | 6.4 | 12.9 | 0.00 | 0.00 | 0.00 | 51 | 1017.8 |
| 20260504024050 | 22 | 197 | 8.0 | 16.1 | 0.00 | 0.00 | 0.00 | 51 | 1017.8 |
| 20260504023535 | 22 | 147 | 8.0 | 16.1 | 0.00 | 0.00 | 0.00 | 50 | 1017.9 |
| 20260504023029 | 22 | 161 | 6.4 | 16.1 | 0.00 | 0.00 | 0.00 | 51 | 1017.8 |
| 20260504022519 | 22 | 121 | 8.0 | 16.1 | 0.00 | 0.00 | 0.00 | 50 | 1017.7 |
| 20260504022018 | 22 | 168 | 8.0 | 14.5 | 0.00 | 0.00 | 0.00 | 51 | 1017.7 |
| 20260504021506 | 22 | 140 | 6.4 | 12.9 | 0.00 | 0.00 | 0.00 | 52 | 1017.8 |
| 20260504015703 | 22 | 148 | 4.8 | 11.3 | 0.00 | 0.00 | 0.00 | 51 | 1017.7 |
| 20260504015141 | 22 | 125 | 4.8 | 9.7 | 0.00 | 0.00 | 0.00 | 50 | 1017.8 |
| 20260504014636 | 22 | 138 | 4.8 | 9.7 | 0.00 | 0.00 | 0.00 | 51 | 1017.9 |
| 20260504014119 | 22 | 166 | 4.8 | 14.5 | 0.00 | 0.00 | 0.00 | 50 | 1017.8 |
| 20260504013618 | 22 | 150 | 6.4 | 14.5 | 0.00 | 0.00 | 0.00 | 50 | 1017.9 |
| 20260504012452 | 22 | 179 | 6.4 | 14.5 | 0.00 | 0.00 | 0.00 | 50 | 1017.9 |
| 20260504011955 | 23 | 161 | 6.4 | 16.1 | 0.00 | 0.00 | 0.00 | 51 | 1017.9 |
| 20260504011436 | 23 | 167 | 8.0 | 16.1 | 0.00 | 0.00 | 0.00 | 50 | 1017.9 |
| 20260504010933 | 23 | 163 | 8.0 | 16.1 | 0.00 | 0.00 | 0.00 | 52 | 1017.9 |
| 20260504010424 | 23 | 186 | 8.0 | 16.1 | 0.00 | 0.00 | 0.00 | 51 | 1017.9 |
| 20260504005904 | 23 | 162 | 6.4 | 14.5 | 0.00 | 0.00 | 0.00 | 50 | 1018.0 |
| 20260504005410 | 23 | 169 | 6.4 | 9.7 | 0.00 | 0.00 | 0.00 | 50 | 1018.0 |
| 20260504004229 | 23 | 165 | 4.8 | 12.9 | 0.00 | 0.00 | 0.00 | 49 | 1017.9 |
| 20260504003725 | 23 | 155 | 6.4 | 14.5 | 0.00 | 0.00 | 0.00 | 50 | 1017.9 |
| 20260504002551 | 23 | 171 | 6.4 | 14.5 | 0.00 | 0.00 | 0.00 | 51 | 1017.7 |
| 20260504002058 | 24 | 134 | 6.4 | 14.5 | 0.00 | 0.00 | 0.00 | 48 | 1017.8 |
| 20260504001544 | 25 | 182 | 4.8 | 11.3 | 0.00 | 0.00 | 0.00 | 50 | 1017.9 |
| 20260504001037 | 25 | 178 | 4.8 | 9.7 | 0.00 | 0.00 | 0.00 | 46 | 1017.9 |
| 20260504000525 | 25 | 131 | 4.8 | 9.7 | 0.00 | 0.00 | 0.00 | 44 | 1017.8 |
| 20260503235359 | 25 | 174 | 4.8 | 14.5 | 0.00 | 0.00 | 0.00 | 44 | 1018.0 |
| 20260503234846 | 25 | 174 | 6.4 | 14.5 | 0.00 | 0.00 | 0.00 | 47 | 1018.2 |
| 20260503234335 | 25 | 167 | 4.8 | 14.5 | 0.00 | 0.00 | 0.00 | 45 | 1018.2 |
| 20260503233830 | 25 | 140 | 4.8 | 12.9 | 0.00 | 0.00 | 0.00 | 46 | 1018.2 |
| 20260503233322 | 25 | 187 | 4.8 | 12.9 | 0.00 | 0.00 | 0.00 | 47 | 1018.1 |
| 20260503231534 | 26 | 184 | 4.8 | 9.7 | 0.00 | 0.00 | 0.00 | 45 | 1018.1 |
| 20260503231022 | 25 | 172 | 4.8 | 14.5 | 0.00 | 0.00 | 0.00 | 44 | 1018.4 |
| 20260503230501 | 25 | 193 | 6.4 | 14.5 | 0.00 | 0.00 | 0.00 | 45 | 1018.4 |
| 20260503225946 | 25 | 101 | 8.0 | 14.5 | 0.00 | 0.00 | 0.00 | 46 | 1018.4 |
| 20260503225424 | 25 | 182 | 8.0 | 14.5 | 0.00 | 0.00 | 0.00 | 46 | 1018.4 |
| 20260503224912 | 25 | 173 | 6.4 | 12.9 | 0.00 | 0.00 | 0.00 | 49 | 1018.4 |
| 20260503224416 | 25 | 155 | 8.0 | 17.7 | 0.00 | 0.00 | 0.00 | 48 | 1018.7 |
| 20260503223908 | 25 | 165 | 9.7 | 17.7 | 0.00 | 0.00 | 0.00 | 47 | 1018.8 |
| 20260503223410 | 25 | 183 | 9.7 | 17.7 | 0.00 | 0.00 | 0.00 | 46 | 1018.8 |
| 20260503222853 | 25 | 192 | 8.0 | 17.7 | 0.00 | 0.00 | 0.00 | 48 | 1018.7 |
| 20260503222359 | 25 | 173 | 8.0 | 12.9 | 0.00 | 0.00 | 0.00 | 48 | 1018.7 |
| 20260503221240 | 25 | 174 | 9.7 | 19.3 | 0.00 | 0.00 | 0.00 | 46 | 1018.6 |
| 20260503220735 | 25 | 104 | 8.0 | 19.3 | 0.00 | 0.00 | 0.00 | 47 | 1018.7 |
| 20260503220236 | 25 | 175 | 11.3 | 19.3 | 0.00 | 0.00 | 0.00 | 48 | 1018.8 |
| 20260503215723 | 25 | 180 | 11.3 | 19.3 | 0.00 | 0.00 | 0.00 | 46 | 1018.8 |
| 20260503215229 | 25 | 175 | 11.3 | 17.7 | 0.00 | 0.00 | 0.00 | 48 | 1018.8 |
| 20260503214711 | 26 | 173 | 9.7 | 17.7 | 0.00 | 0.00 | 0.00 | 47 | 1018.8 |
| 20260503214206 | 26 | 188 | 8.0 | 14.5 | 0.00 | 0.00 | 0.00 | 47 | 1019.0 |
| 20260503213712 | 26 | 187 | 6.4 | 14.5 | 0.00 | 0.00 | 0.00 | 45 | 1019.0 |
| 20260503212547 | 26 | 176 | 8.0 | 17.7 | 0.00 | 0.00 | 0.00 | 45 | 1019.3 |
| 20260503212040 | 26 | 190 | 9.7 | 17.7 | 0.00 | 0.00 | 0.00 | 43 | 1019.4 |
| 20260503211529 | 26 | 174 | 8.0 | 17.7 | 0.00 | 0.00 | 0.00 | 44 | 1019.5 |
| 20260503210419 | 26 | 197 | 6.4 | 12.9 | 0.00 | 0.00 | 0.00 | 41 | 1019.5 |
| 20260503205914 | 26 | 174 | 4.8 | 16.1 | 0.00 | 0.00 | 0.00 | 42 | 1019.6 |
| 20260503204130 | 26 | 180 | 6.4 | 11.3 | 0.00 | 0.00 | 0.00 | 43 | 1019.7 |
| 20260503203627 | 27 | 157 | 6.4 | 11.3 | 0.00 | 0.00 | 0.00 | 43 | 1019.9 |
| 20260503202511 | 27 | 131 | 4.8 | 12.9 | 0.00 | 0.00 | 0.00 | 42 | 1020.1 |
| 20260503202002 | 26 | 168 | 6.4 | 12.9 | 0.00 | 0.00 | 0.00 | 40 | 1020.2 |
| 20260503201506 | 27 | 173 | 6.4 | 12.9 | 0.00 | 0.00 | 0.00 | 40 | 1020.2 |
| 20260503201006 | 27 | 135 | 4.8 | 11.3 | 0.00 | 0.00 | 0.00 | 40 | 1020.3 |
| 20260503200455 | 27 | 178 | 3.2 | 14.5 | 0.00 | 0.00 | 0.00 | 41 | 1020.2 |
| 20260503195949 | 27 | 155 | 3.2 | 14.5 | 0.00 | 0.00 | 0.00 | 40 | 1020.3 |
| 20260503195447 | 27 | 187 | 6.4 | 14.5 | 0.00 | 0.00 | 0.00 | 42 | 1020.4 |
| 20260503194934 | 27 | 92 | 6.4 | 14.5 | 0.00 | 0.00 | 0.00 | 42 | 1020.4 |
| 20260503193753 | 27 | 173 | 3.2 | 12.9 | 0.00 | 0.00 | 0.00 | 40 | 1020.6 |
| 20260503193234 | 27 | 140 | 4.8 | 14.5 | 0.00 | 0.00 | 0.00 | 42 | 1020.9 |
| 20260503192739 | 27 | 109 | 6.4 | 14.5 | 0.00 | 0.00 | 0.00 | 42 | 1020.9 |